Weather History for KAUW - June, 2013

Change the Weather History Date:

Friday, June 21, 2013

  Actual Average Record
Temperature  
Mean Temperature 69 °F 67 °F  
Max Temperature 75 °F 77 °F 96 °F (1995)
Min Temperature 63 °F 56 °F 36 °F (1992)
Degree Days  
Heating Degree Days 0 2  
Month to date heating degree days 86 74  
Since 1 June heating degree days 86 74  
Since 1 July heating degree days 8252 8234  
Cooling Degree Days 4 4  
Month to date cooling degree days 28 46  
Year to date cooling degree days 65 65  
Since 1 June cooling degree days 28 46  
Growing Degree Days 18 (Base 50)    
Moisture  
Dew Point 63 °F    
Average Humidity 81    
Maximum Humidity 93    
Minimum Humidity 68    
Precipitation  
Precipitation 1.68 in 0.14 in 3.00 in (1991)
Month to date precipitation 4.94 3.09  
Year to date precipitation 19.41 13.00  
Snow  
Snow 0.00 in 0.00 in 0.00 in ()
Month to date snowfall 0.0 0.0  
Since 1 June snowfall 0.0  
Since 1 July snowfall 78.8 59.6  
Snow Depth 0.00 in    
Sea Level Pressure  
Sea Level Pressure 29.96 in    
Wind  
Wind Speed 9 mph (SSW)    
Max Wind Speed 36 mph    
Max Gust Speed 48 mph    
Visibility 7 miles    
Events Fog , Rain , Thunderstorm    
T = Trace of Precipitation, MM = Missing Value Source: NWS Daily Summary

Daily Weather History Graph

Daily Weather History Graph

Search for Another Location

Airport or City:

Trip Planner

Search our weather history database for the weather conditions in past years. The results will help you decide how hot, cold, wet, or windy it might be!

Date:

Astronomy

Jun. 21, 2013 Rise Set
Actual Time 5:12 AM CDT 8:48 PM CDT
Civil Twilight 4:34 AM CDT 9:26 PM CDT
Nautical Twilight 3:45 AM CDT 10:15 PM CDT
Astronomical Twilight 2:39 AM CDT 11:21 PM CDT
Moon 6:56 PM CDT (6/21) 3:31 AM CDT (6/21)
Length of Visible Light 16h 51m
Length of Day
15h 36m
Waxing Gibbous, 95% of the Moon is Illuminated
Jun 21
Waxing Gibbous
Jun 23
Full
Jun 29
Last Quarter
Jul 8
New
Jul 15
First Quarter

Hourly Weather History & Observations

Time (CDT) Temp. Dew Point Humidity Pressure Visibility Wind Dir Wind Speed Gust Speed Precip Events Conditions
12:26 AM 68.0 °F 62.6 °F 83% 30.09 in 10.0 mi NE 11.5 mph 20.7 mph N/A Thunderstorm Overcast
12:54 AM 66.0 °F 63.0 °F 90% 30.10 in 3.0 mi NE 11.5 mph 24.2 mph 0.13 in Rain , Thunderstorm Heavy Thunderstorms and Rain
12:58 AM 64.4 °F 62.6 °F 94% 30.12 in 1.8 mi NNE 11.5 mph 24.2 mph 0.07 in Rain , Thunderstorm Heavy Thunderstorms and Rain
1:09 AM 64.4 °F 62.6 °F 94% 30.12 in 2.0 mi North 8.1 mph - 0.18 in Rain , Thunderstorm Heavy Thunderstorms and Rain
1:22 AM 64.4 °F 62.6 °F 94% 30.11 in 4.0 mi ENE 10.4 mph 16.1 mph 0.23 in Rain , Thunderstorm Thunderstorms and Rain
1:54 AM 64.9 °F 63.0 °F 93% 30.07 in 9.0 mi East 10.4 mph - 0.23 in   Mostly Cloudy
2:54 AM 64.0 °F 62.1 °F 93% 30.02 in 9.0 mi ESE 15.0 mph - N/A   Clear
3:54 AM 63.0 °F 61.0 °F 93% 30.01 in 9.0 mi ESE 11.5 mph - N/A   Clear
4:54 AM 63.0 °F 60.1 °F 90% 29.98 in 9.0 mi Calm Calm - 0.00 in Rain Light Rain
5:54 AM 64.0 °F 60.1 °F 87% 29.93 in 10.0 mi ESE 10.4 mph - 0.01 in   Partly Cloudy
6:19 AM 62.6 °F 60.8 °F 94% 29.94 in 6.0 mi South 3.5 mph - 0.01 in Rain , Thunderstorm Light Thunderstorms and Rain
6:36 AM 62.6 °F 60.8 °F 94% 29.92 in 2.5 mi Variable 6.9 mph - 0.19 in Rain , Thunderstorm Light Thunderstorms and Rain
6:44 AM 64.4 °F 62.6 °F 94% 29.92 in 7.0 mi SSE 3.5 mph - 0.19 in Rain , Thunderstorm Light Rain
6:54 AM 64.9 °F 63.0 °F 93% 29.90 in 2.5 mi Calm Calm - 0.23 in Rain , Thunderstorm Thunderstorms and Rain
7:08 AM 64.4 °F 62.6 °F 94% 30.00 in 4.0 mi West 25.3 mph 36.8 mph 0.04 in Rain , Thunderstorm Light Thunderstorms and Rain
7:10 AM 64.4 °F 62.6 °F 94% 30.00 in 1.5 mi West 25.3 mph 36.8 mph 0.25 in Rain , Thunderstorm Thunderstorms and Rain
7:14 AM 64.4 °F 62.6 °F 94% 29.98 in 0.5 mi SSW 12.7 mph 36.8 mph 0.55 in Fog , Rain , Thunderstorm Heavy Thunderstorms and Rain
7:24 AM 62.6 °F 62.6 °F 100% 29.97 in 1.0 mi South 10.4 mph - 0.89 in Rain , Thunderstorm Heavy Thunderstorms and Rain
7:31 AM 62.6 °F 62.6 °F 100% 29.95 in 2.0 mi SSE 6.9 mph - 0.96 in Rain , Thunderstorm Heavy Thunderstorms and Rain
7:42 AM 62.6 °F 62.6 °F 100% 29.95 in 5.0 mi SE 6.9 mph - 1.00 in Rain , Thunderstorm Heavy Rain
7:54 AM 63.0 °F 61.0 °F 93% 29.94 in 5.0 mi SSE 4.6 mph - 1.04 in Rain , Thunderstorm Heavy Rain
8:20 AM 62.6 °F 62.6 °F 100% 29.94 in 5.0 mi SSE 13.8 mph - 0.12 in Rain Heavy Rain
8:45 AM 64.4 °F 62.6 °F 94% 29.87 in 5.0 mi SSE 21.9 mph 27.6 mph 0.20 in Rain , Thunderstorm Thunderstorms and Rain
8:54 AM 63.0 °F 62.1 °F 97% 29.83 in 5.0 mi SSE 21.9 mph 33.4 mph 0.22 in Rain Rain
9:12 AM 62.6 °F 62.6 °F 100% 29.72 in 9.0 mi SSE 34.5 mph 48.3 mph 0.02 in Rain , Thunderstorm Light Thunderstorms and Rain
9:27 AM 64.4 °F 62.6 °F 94% 29.78 in 10.0 mi South 24.2 mph 36.8 mph 0.02 in Rain Light Rain
9:54 AM 64.0 °F 61.0 °F 90% 29.77 in 10.0 mi SSE 18.4 mph 28.8 mph 0.02 in   Clear
10:54 AM 66.9 °F 62.1 °F 84% 29.87 in 10.0 mi SW 9.2 mph 19.6 mph N/A   Clear
11:28 AM 68.0 °F 62.6 °F 83% 29.90 in 10.0 mi SW 8.1 mph - N/A   Mostly Cloudy
11:54 AM 69.1 °F 63.0 °F 81% 29.90 in 10.0 mi SW 9.2 mph - N/A   Overcast
12:54 PM 71.1 °F 62.1 °F 73% 29.90 in 10.0 mi SW 10.4 mph - N/A   Overcast
1:54 PM 69.1 °F 62.1 °F 78% 29.92 in 10.0 mi West 13.8 mph - N/A   Overcast
2:54 PM 71.1 °F 64.0 °F 78% 29.93 in 10.0 mi West 13.8 mph - N/A   Overcast
3:16 PM 71.6 °F 64.4 °F 78% 29.92 in 10.0 mi West 12.7 mph - N/A   Overcast
3:54 PM 73.0 °F 64.0 °F 73% 29.94 in 10.0 mi West 12.7 mph 20.7 mph N/A   Overcast
4:39 PM 73.4 °F 64.4 °F 73% 29.95 in 10.0 mi West 15.0 mph 19.6 mph N/A   Mostly Cloudy
4:54 PM 73.9 °F 64.0 °F 71% 29.95 in 10.0 mi West 12.7 mph - N/A   Mostly Cloudy
5:54 PM 73.9 °F 64.0 °F 71% 29.96 in 10.0 mi West 9.2 mph - N/A   Partly Cloudy
6:54 PM 73.9 °F 63.0 °F 68% 29.98 in 10.0 mi WNW 8.1 mph - N/A   Clear
7:54 PM 71.1 °F 63.0 °F 75% 30.00 in 10.0 mi West 5.8 mph - N/A   Clear
8:54 PM 69.1 °F 63.0 °F 81% 30.02 in 10.0 mi West 3.5 mph - N/A   Clear
9:54 PM 66.9 °F 63.0 °F 87% 30.04 in 10.0 mi Calm Calm - N/A   Clear
10:54 PM 66.9 °F 63.0 °F 87% 30.06 in 10.0 mi NW 6.9 mph - N/A   Partly Cloudy
11:54 PM 64.9 °F 63.0 °F 93% 30.05 in 10.0 mi WNW 8.1 mph - N/A   Clear